Regional Weather Roundup
Issued by NWS Northern Indiana

Home | Current Version | Previous Version | Graphics & Text | Print | Product List | Glossary On
Versions: 1 2 3 4 5 6 7 8 9 10 11 12 13 14 15 16 17 18 19 20 21 22 23 24 25 26 27 28 29 30 31 32 33 34 35 36 37 38 39 40 41 42 43 44 45 46 47 48 49 50
000
ASUS43 KIWX 011600
RWRIWX

KIWX WEATHER ROUNDUP
NATIONAL WEATHER SERVICE NORTHERN INDIANA
1100 AM EST SUN MAR 01 2015

NOTE: "FAIR" INDICATES FEW OR NO CLOUDS BELOW 12,000 FEET WITH NO
SIGNIFICANT WEATHER AND/OR OBSTRUCTIONS TO VISIBILITY.

* THESE STATIONS ARE NOT UNDER NWS QUALITY CONTROL. THEY ALSO MAY NOT
  REPORT WEATHER SUCH AS PRECIPITATION OR FOG.

INZ001>027-011700-
NORTHERN INDIANA

CITY           SKY/WX    TMP DP  RH WIND       PRES   REMARKS
GARY*          LGT SNOW  23  16  74 SW3       30.38R
SOUTH BEND     LGT SNOW  20  16  84 S5        30.36F FOG     WCI  13
GOSHEN         SNOW      19  16  88 CALM      30.35F VSB 1/2
ANGOLA*        CLOUDY    18   9  68 CALM      30.34S
FORT WAYNE     LGT SNOW  20  17  88 CALM      30.36F VSB 1

$$
INZ028>050-011700-
CENTRAL INDIANA

CITY           SKY/WX    TMP DP  RH WIND       PRES   REMARKS
LAFAYETTE      LGT SNOW  23  21  92 CALM      30.38R VSB 3/4
KOKOMO*        PTSUNNY   21  18  86 CALM      30.36S VSB 1
MUNCIE*        LGT SNOW  28  25  88 NW5       30.33F FOG     WCI  23
INDIANAPOLIS   LGT SNOW  28  25  88 CALM      30.35R FOG

$$
MIZ043>046-050>051-056>058-064>065-071>073-077>080-011700-
SOUTHWEST LOWER MICHIGAN

CITY           SKY/WX    TMP DP  RH WIND       PRES   REMARKS
BATTLE CREEK   PTSUNNY   18  12  77 S6        30.35S WCI  10
BENTON HARBOR  CLOUDY    18  15  88 SE7       30.36F FOG     WCI   9
COLDWATER*     LGT SNOW  20  15  79 CALM      30.34F
HILLSDALE*     LGT SNOW  20  15  82 CALM      30.31F
HOLLAND        LGT SNOW  20  15  81 S6        30.35F WCI  12
GRAND RAPIDS   PTSUNNY   17  12  80 S6        30.35S WCI   9
KALAMAZOO      PTSUNNY   18  13  80 S3        30.35F
STURGIS*       LGT SNOW  18  16  93 CALM      30.34F VSB 3/4
THREE RIVERS*  CLOUDY    19  14  80 CALM      30.35F

$$
OHZ001>008-015>018-024>025-011700-
NORTHWEST OHIO

CITY           SKY/WX    TMP DP  RH WIND       PRES   REMARKS
DEFIANCE       LGT SNOW  22  16  78 CALM      30.37F
FINDLAY        LGT SNOW  23  21  92 S3        30.33F VSB 1
TOLEDO EXPRESS LGT SNOW  19  16  88 CALM      30.36F VSB 3/4
TOLEDO METCALF LGT SNOW  21  17  84 CALM      30.36F VSB 1
LIMA           LGT SNOW  27  23  85 CALM      30.33F VSB 3/4

$$
AND FOR LAKE MICHIGAN COASTAL AND OPEN LAKE BUOY OBSERVATIONS

STATION/POSITION TEMP    WIND        PRES    VSBY  WAVE
                 AIR SEA DIR/SP/G                  HT/PER
                 (F)     (DEG/KT/KT) (MB)    (MI)  (FT/S)
CALUMET HARBOR    21     210/  3/  4 1027.3F
MICHIGAN CITY     19     140/  5/  5   N/A
SAINT JOSEPH      20      CALM  /  7 1028.4F

$$
&&



USA.gov is the U.S. government's official web portal to all federal, state and local government web resources and services.